Location: Newark
(50.8547°N, 2.7256°E)
Time: 14:33:07
(UTC+00:00)

Envisat - Pass Details

Date: 02 February 2020
Orbit: 764 x 766 km, 98.1° (Epoch: 28 February)

Event Time Altitude Azimuth Distance (km) Brightness Sun altitude
Rises 06:12:23 0° 18° (NNE) 3,246 6.3 -11.6°
Reaches altitude 10° 06:14:47 10° 23° (NNE) 2,314 5.6 -11.2°
Maximum altitude 06:19:44 50° 99° (E) 968 4.1 -10.4°
Drops below altitude 10° 06:24:39 10° 175° (S) 2,296 5.7 -9.7°
Sets 06:27:01 0° 181° (S) 3,218 6.4 -9.3°
